ヴォルフ彗星

14P/Wolf (2000)

English version
Home page
Updated on February 8, 2004

---------------------------------------------------------------------

・ プロフィール

・ 軌道要素

Epoch 2000 Dec. 2.0 TT = JDT 2451880.5
T 2000 Nov. 21.07404 TT                                 Muraoka
q   2.4126313            (2000.0)            P               Q
n   0.12005656     Peri.  162.36363     +0.97959046     -0.06885693
a   4.0695413      Node   204.12073     +0.07663459     +0.99647288
e   0.4071491      Incl.   27.52266     +0.18582162     -0.04796374
P   8.21
>From 69 observations 1950-1993, mean residual 0".86.

・ 星図

・ 光度変化

        m1 = 15.0 + 5 logΔ + 6.0 log r

---------------------------------------------------------------------

軌道要素は村岡健治氏の計算によるものです。
星図は StellaNavigator Ver.2.0 for Windows (アストロアーツ 編著 / アスキー出版局刊) で作成したものです。
光度グラフはComet for Windowsで作成したものです。

---------------------------------------------------------------------

Copyright(C) Seiichi Yoshida (comet@aerith.net). All rights reserved.